Wetterdaten: Sonntag, 11.09.2005
Datum Zeit Temp. A Sch. Temp. A Son. Feuchte A. Luftdruck Regen Wind Richtung Richtung Sonnenschein Helligkeit Taupunkt Windchill
11.09.2005 00:00 16,6 C 17,1 C 95 % 1010 hPa 0,0 l/m 0,0 m/s (0 Bft) W 275 0,00 min 0 lux 15,8 C 16,6 C
11.09.2005 00:05 16,5 C 17,1 C 94 % 1010 hPa 0,0 l/m 0,0 m/s (0 Bft) W 275 0,00 min 0 lux 15,5 C 16,5 C
11.09.2005 00:10 16,5 C 17,1 C 95 % 1010 hPa 0,0 l/m 0,0 m/s (0 Bft) W 275 0,00 min 0 lux 15,7 C 16,5 C
11.09.2005 00:15 16,6 C 17,1 C 95 % 1010 hPa 0,0 l/m 0,0 m/s (0 Bft) W 275 0,00 min 0 lux 15,8 C 16,6 C
11.09.2005 00:20 16,6 C 17,1 C 95 % 1010 hPa 0,0 l/m 0,0 m/s (0 Bft) W 275 0,00 min 0 lux 15,8 C 16,6 C
11.09.2005 00:25 16,6 C 17,0 C 95 % 1010 hPa 0,0 l/m 0,0 m/s (0 Bft) W 275 0,00 min 0 lux 15,8 C 16,6 C
11.09.2005 00:30 16,6 C 17,0 C 95 % 1010 hPa 0,0 l/m 0,0 m/s (0 Bft) W 275 0,00 min 0 lux 15,8 C 16,6 C
11.09.2005 00:35 16,6 C 17,1 C 95 % 1010 hPa 0,0 l/m 0,0 m/s (0 Bft) W-SW22.5 250 0,00 min 0 lux 15,8 C 16,6 C
11.09.2005 00:40 16,7 C 17,0 C 95 % 1010 hPa 0,0 l/m 1,4 m/s (1 Bft) W-SW22.5 245 0,00 min 0 lux 15,9 C 16,7 C
11.09.2005 00:45 16,7 C 17,0 C 95 % 1010 hPa 0,0 l/m 1,7 m/s (1 Bft) W-SW45 240 0,00 min 0 lux 15,9 C 16,7 C
11.09.2005 00:50 16,6 C 17,0 C 95 % 1010 hPa 0,0 l/m 1,3 m/s (1 Bft) W-SW22.5 240 0,00 min 0 lux 15,8 C 16,6 C
11.09.2005 00:55 16,6 C 17,0 C 95 % 1010 hPa 0,0 l/m 1,2 m/s (1 Bft) W22.5 260 0,00 min 0 lux 15,8 C 16,6 C
11.09.2005 01:00 16,6 C 17,0 C 95 % 1010 hPa 0,0 l/m 1,4 m/s (1 Bft) W-SW22.5 240 0,00 min 0 lux 15,8 C 16,6 C
11.09.2005 01:05 16,6 C 17,0 C 95 % 1010 hPa 0,4 l/m 2,4 m/s (1 Bft) W-SW22.5 240 0,00 min 0 lux 15,8 C 15,5 C
11.09.2005 01:10 16,6 C 17,0 C 95 % 1010 hPa 0,0 l/m 2,3 m/s (1 Bft) W-SW22.5 250 0,00 min 0 lux 15,8 C 15,7 C
11.09.2005 01:15 16,7 C 17,0 C 95 % 1010 hPa 0,0 l/m 2,2 m/s (1 Bft) W-SW22.5 240 0,00 min 0 lux 15,9 C 15,9 C
11.09.2005 01:20 16,7 C 17,0 C 95 % 1010 hPa 0,4 l/m 1,9 m/s (1 Bft) W-SW22.5 250 0,00 min 0 lux 15,9 C 16,6 C
11.09.2005 01:25 16,7 C 17,0 C 95 % 1010 hPa 0,0 l/m 2,0 m/s (1 Bft) W-SW22.5 250 0,00 min 0 lux 15,9 C 16,3 C
11.09.2005 01:30 16,6 C 17,0 C 95 % 1010 hPa 0,0 l/m 2,0 m/s (1 Bft) W-SW22.5 250 0,00 min 0 lux 15,8 C 16,2 C
11.09.2005 01:35 16,6 C 17,0 C 95 % 1010 hPa 0,0 l/m 3,0 m/s (1 Bft) W-SW22.5 245 0,00 min 0 lux 15,8 C 14,6 C
11.09.2005 01:40 16,6 C 17,0 C 95 % 1010 hPa 0,4 l/m 2,6 m/s (1 Bft) W-SW22.5 250 0,00 min 0 lux 15,8 C 15,1 C
11.09.2005 01:45 16,6 C 16,9 C 95 % 1010 hPa 0,0 l/m 2,6 m/s (1 Bft) W-SW22.5 250 0,00 min 0 lux 15,8 C 15,1 C
11.09.2005 01:50 16,6 C 17,0 C 95 % 1010 hPa 0,4 l/m 2,5 m/s (1 Bft) W-SW22.5 250 0,00 min 0 lux 15,8 C 15,3 C
11.09.2005 01:55 16,6 C 16,9 C 95 % 1010 hPa 0,4 l/m 2,7 m/s (1 Bft) W-SW 245 0,00 min 0 lux 15,8 C 15,0 C
11.09.2005 02:00 16,6 C 16,9 C 95 % 1010 hPa 0,0 l/m 1,8 m/s (1 Bft) W-SW22.5 250 0,00 min 0 lux 15,8 C 16,6 C
11.09.2005 02:05 16,5 C 17,0 C 95 % 1010 hPa 0,0 l/m 1,8 m/s (1 Bft) W-SW22.5 250 0,00 min 0 lux 15,7 C 16,5 C
11.09.2005 02:10 16,5 C 16,9 C 95 % 1010 hPa 0,4 l/m 0,2 m/s (0 Bft) SW22.5 235 0,00 min 0 lux 15,7 C 16,5 C
11.09.2005 02:15 16,5 C 16,9 C 95 % 1010 hPa 0,0 l/m 1,9 m/s (1 Bft) SW22.5 235 0,00 min 0 lux 15,7 C 16,2 C
11.09.2005 02:20 16,5 C 16,9 C 95 % 1010 hPa 0,0 l/m 1,5 m/s (1 Bft) W-SW22.5 240 0,00 min 0 lux 15,7 C 16,5 C
11.09.2005 02:25 16,5 C 16,8 C 95 % 1010 hPa 0,0 l/m 2,1 m/s (1 Bft) W-SW22.5 245 0,00 min 0 lux 15,7 C 15,9 C
11.09.2005 02:30 16,5 C 16,8 C 95 % 1010 hPa 0,0 l/m 2,1 m/s (1 Bft) W-SW22.5 245 0,00 min 0 lux 15,7 C 15,9 C
11.09.2005 02:35 16,5 C 16,7 C 95 % 1010 hPa 0,0 l/m 1,6 m/s (1 Bft) W-SW22.5 240 0,00 min 0 lux 15,7 C 16,5 C
11.09.2005 02:40 16,4 C 16,8 C 95 % 1010 hPa 0,0 l/m 1,8 m/s (1 Bft) W-SW22.5 240 0,00 min 0 lux 15,6 C 16,3 C
11.09.2005 02:45 16,5 C 16,8 C 95 % 1010 hPa 0,0 l/m 2,3 m/s (1 Bft) SW22.5 230 0,00 min 0 lux 15,7 C 15,6 C
11.09.2005 02:50 16,5 C 16,8 C 95 % 1010 hPa 0,0 l/m 1,8 m/s (1 Bft) W-SW22.5 250 0,00 min 0 lux 15,7 C 16,5 C
11.09.2005 02:55 16,5 C 16,8 C 95 % 1010 hPa 0,0 l/m 1,8 m/s (1 Bft) W-SW22.5 240 0,00 min 0 lux 15,7 C 16,5 C
11.09.2005 03:00 16,5 C 16,8 C 95 % 1010 hPa 0,0 l/m 1,9 m/s (1 Bft) W-SW22.5 240 0,00 min 0 lux 15,7 C 16,3 C
11.09.2005 03:05 16,4 C 16,8 C 95 % 1010 hPa 0,4 l/m 1,9 m/s (1 Bft) W-SW22.5 240 0,00 min 0 lux 15,6 C 16,2 C
11.09.2005 03:10 16,4 C 16,8 C 95 % 1010 hPa 0,0 l/m 1,9 m/s (1 Bft) W-SW22.5 240 0,00 min 0 lux 15,6 C 16,2 C
11.09.2005 03:15 16,4 C 16,8 C 95 % 1010 hPa 0,0 l/m 2,2 m/s (1 Bft) W-SW22.5 245 0,00 min 0 lux 15,6 C 15,6 C
11.09.2005 03:20 16,4 C 16,8 C 95 % 1010 hPa 0,0 l/m 1,6 m/s (1 Bft) W-SW22.5 240 0,00 min 0 lux 15,6 C 16,4 C
11.09.2005 03:25 16,4 C 16,7 C 95 % 1010 hPa 0,0 l/m 1,9 m/s (1 Bft) W22.5 260 0,00 min 0 lux 15,6 C 16,1 C
11.09.2005 03:30 16,4 C 16,7 C 95 % 1010 hPa 0,0 l/m 1,4 m/s (1 Bft) SW22.5 235 0,00 min 0 lux 15,6 C 16,4 C
11.09.2005 03:35 16,4 C 16,7 C 95 % 1010 hPa 0,4 l/m 1,8 m/s (1 Bft) W-SW22.5 250 0,00 min 0 lux 15,6 C 16,4 C
11.09.2005 03:40 16,4 C 16,7 C 95 % 1010 hPa 0,0 l/m 1,3 m/s (1 Bft) W22.5 260 0,00 min 0 lux 15,6 C 16,4 C
11.09.2005 03:45 16,4 C 16,7 C 95 % 1010 hPa 0,0 l/m 1,5 m/s (1 Bft) W-SW22.5 250 0,00 min 0 lux 15,6 C 16,4 C
11.09.2005 03:50 16,4 C 16,7 C 95 % 1010 hPa 0,0 l/m 1,3 m/s (1 Bft) W-SW22.5 250 0,00 min 0 lux 15,6 C 16,4 C
11.09.2005 03:55 16,4 C 16,7 C 95 % 1010 hPa 0,0 l/m 2,3 m/s (1 Bft) W-SW22.5 250 0,00 min 0 lux 15,6 C 15,4 C
11.09.2005 04:00 16,3 C 16,7 C 95 % 1010 hPa 0,0 l/m 2,1 m/s (1 Bft) W-SW22.5 250 0,00 min 0 lux 15,5 C 15,7 C
11.09.2005 04:05 16,4 C 16,7 C 95 % 1009 hPa 0,0 l/m 1,9 m/s (1 Bft) W-SW22.5 250 0,00 min 0 lux 15,6 C 16,2 C
11.09.2005 04:10 16,4 C 16,7 C 95 % 1009 hPa 0,0 l/m 1,8 m/s (1 Bft) W-SW22.5 240 0,00 min 0 lux 15,6 C 16,3 C
11.09.2005 04:15 16,4 C 16,7 C 95 % 1010 hPa 0,0 l/m 2,2 m/s (1 Bft) W-SW22.5 255 0,00 min 0 lux 15,6 C 15,7 C
11.09.2005 04:20 16,4 C 16,6 C 95 % 1010 hPa 0,0 l/m 1,9 m/s (1 Bft) W-SW22.5 255 0,00 min 0 lux 15,6 C 16,1 C
11.09.2005 04:25 16,4 C 16,6 C 95 % 1010 hPa 0,0 l/m 1,8 m/s (1 Bft) W-SW22.5 250 0,00 min 0 lux 15,6 C 16,4 C
11.09.2005 04:30 16,3 C 16,6 C 95 % 1009 hPa 0,0 l/m 1,9 m/s (1 Bft) W-SW22.5 245 0,00 min 0 lux 15,5 C 16,2 C
11.09.2005 04:35 16,3 C 16,6 C 95 % 1009 hPa 0,0 l/m 1,8 m/s (1 Bft) W-SW45 250 0,00 min 0 lux 15,5 C 16,2 C
11.09.2005 04:40 16,2 C 16,6 C 95 % 1009 hPa 0,0 l/m 1,4 m/s (1 Bft) W-SW22.5 250 0,00 min 0 lux 15,4 C 16,2 C
11.09.2005 04:45 16,3 C 16,6 C 95 % 1009 hPa 0,0 l/m 1,7 m/s (1 Bft) W-SW 250 0,00 min 0 lux 15,5 C 16,3 C
11.09.2005 04:50 16,3 C 16,6 C 95 % 1009 hPa 0,0 l/m 1,6 m/s (1 Bft) W-SW22.5 240 0,00 min 0 lux 15,5 C 16,3 C
11.09.2005 04:55 16,2 C 16,6 C 95 % 1009 hPa 0,0 l/m 2,1 m/s (1 Bft) W-SW 250 0,00 min 0 lux 15,4 C 15,7 C
11.09.2005 05:00 16,2 C 16,5 C 95 % 1009 hPa 0,0 l/m 2,9 m/s (1 Bft) W-SW22.5 255 0,00 min 0 lux 15,4 C 14,3 C
11.09.2005 05:05 16,2 C 16,5 C 95 % 1009 hPa 0,0 l/m 2,1 m/s (1 Bft) W-SW22.5 250 0,00 min 0 lux 15,4 C 15,7 C
11.09.2005 05:10 16,2 C 16,5 C 95 % 1009 hPa 0,0 l/m 0,7 m/s (0 Bft) W22.5 265 0,00 min 0 lux 15,4 C 16,2 C
11.09.2005 05:15 16,2 C 16,5 C 95 % 1009 hPa 0,0 l/m 0,2 m/s (0 Bft) W-SW 250 0,00 min 0 lux 15,4 C 16,2 C
11.09.2005 05:20 16,2 C 16,5 C 95 % 1009 hPa 0,0 l/m 0,3 m/s (0 Bft) W-SW 250 0,00 min 0 lux 15,4 C 16,2 C
11.09.2005 05:25 16,2 C 16,5 C 95 % 1009 hPa 0,0 l/m 0,1 m/s (0 Bft) W-SW 250 0,00 min 0 lux 15,4 C 16,2 C
11.09.2005 05:30 16,2 C 16,5 C 95 % 1009 hPa 0,0 l/m 1,5 m/s (1 Bft) W-SW 250 0,00 min 0 lux 15,4 C 16,2 C
11.09.2005 05:35 16,2 C 16,5 C 95 % 1009 hPa 0,0 l/m 2,7 m/s (1 Bft) W-SW22.5 250 0,00 min 0 lux 15,4 C 14,5 C
11.09.2005 05:40 16,2 C 16,5 C 95 % 1009 hPa 0,0 l/m 2,2 m/s (1 Bft) W-SW45 250 0,00 min 0 lux 15,4 C 15,5 C
11.09.2005 05:45 16,2 C 16,5 C 95 % 1009 hPa 0,0 l/m 1,9 m/s (1 Bft) W-SW22.5 250 0,00 min 0 lux 15,4 C 15,9 C
11.09.2005 05:50 16,2 C 16,5 C 95 % 1009 hPa 0,0 l/m 1,9 m/s (1 Bft) W-SW45 250 0,00 min 0 lux 15,4 C 15,9 C
11.09.2005 05:55 16,2 C 16,5 C 95 % 1009 hPa 0,0 l/m 1,7 m/s (1 Bft) W-SW 240 0,00 min 0 lux 15,4 C 16,2 C
11.09.2005 06:00 16,2 C 16,5 C 95 % 1009 hPa 0,0 l/m 1,6 m/s (1 Bft) W-SW22.5 250 0,00 min 0 lux 15,4 C 16,2 C
11.09.2005 06:05 16,2 C 16,5 C 95 % 1009 hPa 0,0 l/m 1,4 m/s (1 Bft) W-SW22.5 245 0,00 min 0 lux 15,4 C 16,2 C
11.09.2005 06:10 16,2 C 16,5 C 95 % 1009 hPa 0,0 l/m 1,3 m/s (1 Bft) W-SW22.5 255 0,00 min 0 lux 15,4 C 16,2 C
11.09.2005 06:15 16,2 C 16,5 C 95 % 1009 hPa 0,0 l/m 1,3 m/s (1 Bft) W22.5 265 0,00 min 0 lux 15,4 C 16,2 C
11.09.2005 06:20 16,2 C 16,4 C 95 % 1009 hPa 0,0 l/m 1,6 m/s (1 Bft) W22.5 260 0,00 min 0 lux 15,4 C 16,2 C
11.09.2005 06:25 16,2 C 16,4 C 95 % 1009 hPa 0,0 l/m 1,4 m/s (1 Bft) W-SW 250 0,00 min 0 lux 15,4 C 16,2 C
11.09.2005 06:30 16,2 C 16,4 C 95 % 1009 hPa 0,0 l/m 1,6 m/s (1 Bft) W-SW22.5 250 0,00 min 0 lux 15,4 C 16,2 C
11.09.2005 06:35 16,2 C 16,4 C 95 % 1009 hPa 0,0 l/m 0,3 m/s (0 Bft) W-SW22.5 245 0,00 min 0 lux 15,4 C 16,2 C
11.09.2005 06:40 16,2 C 16,5 C 95 % 1009 hPa 0,0 l/m 0,0 m/s (0 Bft) W 265 0,00 min 0 lux 15,4 C 16,2 C
11.09.2005 06:45 16,2 C 16,5 C 95 % 1009 hPa 0,0 l/m 0,0 m/s (0 Bft) W 265 0,00 min 0 lux 15,4 C 16,2 C
11.09.2005 06:50 16,2 C 16,5 C 95 % 1009 hPa 0,0 l/m 0,0 m/s (0 Bft) W 265 0,00 min 35 lux 15,4 C 16,2 C
11.09.2005 06:55 16,2 C 16,5 C 95 % 1009 hPa 0,0 l/m 0,2 m/s (0 Bft) W-SW22.5 250 0,00 min 55 lux 15,4 C 16,2 C
11.09.2005 07:00 16,2 C 16,5 C 95 % 1009 hPa 0,0 l/m 1,3 m/s (1 Bft) W-SW22.5 245 0,00 min 75 lux 15,4 C 16,2 C
11.09.2005 07:05 16,3 C 16,5 C 95 % 1009 hPa 0,4 l/m 1,2 m/s (1 Bft) W-SW22.5 245 0,00 min 125 lux 15,5 C 16,3 C
11.09.2005 07:10 16,3 C 16,5 C 95 % 1009 hPa 0,0 l/m 1,1 m/s (1 Bft) W-SW 245 0,00 min 173 lux 15,5 C 16,3 C
11.09.2005 07:15 16,3 C 16,5 C 95 % 1009 hPa 0,4 l/m 0,0 m/s (0 Bft) W-SW22.5 250 0,00 min 303 lux 15,5 C 16,3 C
11.09.2005 07:20 16,3 C 16,5 C 95 % 1009 hPa 0,0 l/m 0,0 m/s (0 Bft) W-SW 240 0,00 min 519 lux 15,5 C 16,3 C
11.09.2005 07:25 16,3 C 16,5 C 95 % 1009 hPa 0,0 l/m 0,0 m/s (0 Bft) W-SW 240 0,00 min 716 lux 15,5 C 16,3 C
11.09.2005 07:30 16,4 C 16,6 C 95 % 1009 hPa 0,0 l/m 0,0 m/s (0 Bft) W-SW 240 0,00 min 1,01 klux 15,6 C 16,4 C
11.09.2005 07:35 16,4 C 16,6 C 95 % 1009 hPa 0,4 l/m 0,0 m/s (0 Bft) W-SW 240 0,00 min 1,24 klux 15,6 C 16,4 C
11.09.2005 07:40 16,4 C 16,6 C 95 % 1009 hPa 0,0 l/m 0,0 m/s (0 Bft) W-SW 240 0,00 min 1,71 klux 15,6 C 16,4 C
11.09.2005 07:45 16,4 C 16,6 C 95 % 1009 hPa 0,0 l/m 1,3 m/s (1 Bft) W-SW 240 0,00 min 1,85 klux 15,6 C 16,4 C
11.09.2005 07:50 16,5 C 16,6 C 95 % 1009 hPa 0,0 l/m 1,8 m/s (1 Bft) W-SW22.5 245 0,00 min 1,93 klux 15,7 C 16,5 C
11.09.2005 07:55 16,5 C 16,7 C 95 % 1009 hPa 0,0 l/m 1,6 m/s (1 Bft) W22.5 260 0,00 min 2,30 klux 15,7 C 16,5 C
11.09.2005 08:00 16,5 C 16,7 C 95 % 1009 hPa 0,0 l/m 1,9 m/s (1 Bft) W-SW45 240 0,00 min 2,09 klux 15,7 C 16,2 C
11.09.2005 08:05 16,5 C 16,7 C 95 % 1009 hPa 0,0 l/m 1,5 m/s (1 Bft) W-SW22.5 250 0,00 min 2,04 klux 15,7 C 16,5 C
11.09.2005 08:10 16,6 C 16,8 C 95 % 1009 hPa 0,0 l/m 1,2 m/s (1 Bft) W-SW22.5 255 0,00 min 2,14 klux 15,8 C 16,6 C
11.09.2005 08:15 16,6 C 16,8 C 95 % 1009 hPa 0,0 l/m 1,2 m/s (1 Bft) W-SW 250 0,00 min 2,60 klux 15,8 C 16,6 C
11.09.2005 08:20 16,7 C 16,8 C 95 % 1010 hPa 0,0 l/m 0,1 m/s (0 Bft) W-SW 250 0,00 min 3,81 klux 15,9 C 16,7 C
11.09.2005 08:25 16,7 C 16,9 C 95 % 1010 hPa 0,0 l/m 0,1 m/s (0 Bft) W-SW 250 0,00 min 4,19 klux 15,9 C 16,7 C
11.09.2005 08:30 16,8 C 16,9 C 94 % 1010 hPa 0,0 l/m 0,0 m/s (0 Bft) W-SW 250 0,00 min 4,68 klux 15,8 C 16,8 C
11.09.2005 08:35 16,9 C 17,0 C 94 % 1010 hPa 0,0 l/m 0,0 m/s (0 Bft) W-SW 250 0,00 min 5,94 klux 15,9 C 16,9 C
11.09.2005 08:40 16,9 C 17,1 C 94 % 1010 hPa 0,0 l/m 0,0 m/s (0 Bft) W-SW 250 0,00 min 6,58 klux 15,9 C 16,9 C
11.09.2005 08:45 17,1 C 17,2 C 94 % 1010 hPa 0,0 l/m 0,0 m/s (0 Bft) W-SW 250 0,00 min 7,73 klux 16,1 C 17,1 C
11.09.2005 08:50 17,5 C 17,2 C 93 % 1010 hPa 0,0 l/m 0,0 m/s (0 Bft) W-SW 250 0,00 min 9,1 klux 16,4 C 17,5 C
11.09.2005 08:55 17,5 C 17,2 C 93 % 1010 hPa 0,0 l/m 0,0 m/s (0 Bft) W-SW 250 0,00 min 9,6 klux 16,4 C 17,5 C
11.09.2005 09:00 17,8 C 17,5 C 93 % 1010 hPa 0,0 l/m 0,0 m/s (0 Bft) W-SW 250 0,00 min 9,6 klux 16,7 C 17,8 C
11.09.2005 09:05 17,7 C 17,6 C 92 % 1010 hPa 0,0 l/m 0,0 m/s (0 Bft) W-SW 250 0,00 min 11,0 klux 16,4 C 17,7 C
11.09.2005 09:10 17,8 C 17,7 C 92 % 1010 hPa 0,0 l/m 0,0 m/s (0 Bft) W-SW 250 0,00 min 11,8 klux 16,5 C 17,8 C
11.09.2005 09:15 17,9 C 17,7 C 91 % 1009 hPa 0,0 l/m 0,0 m/s (0 Bft) W-SW 250 0,00 min 12,9 klux 16,4 C 17,9 C
11.09.2005 09:20 18,1 C 17,8 C 90 % 1009 hPa 0,0 l/m 0,0 m/s (0 Bft) W-SW 250 0,00 min 15,3 klux 16,4 C 18,1 C
11.09.2005 09:25 18,3 C 17,9 C 89 % 1009 hPa 0,0 l/m 0,0 m/s (0 Bft) W-SW 250 0,00 min 16,9 klux 16,5 C 18,3 C
11.09.2005 09:30 18,4 C 18,1 C 89 % 1010 hPa 0,0 l/m 0,0 m/s (0 Bft) W-SW 250 0,00 min 17,3 klux 16,6 C 18,4 C
11.09.2005 09:35 18,2 C 18,1 C 88 % 1010 hPa 0,0 l/m 0,0 m/s (0 Bft) W-SW 250 0,00 min 15,9 klux 16,2 C 18,2 C
11.09.2005 09:40 18,5 C 18,2 C 88 % 1010 hPa 0,0 l/m 0,0 m/s (0 Bft) W-SW 250 0,00 min 15,1 klux 16,5 C 18,5 C
11.09.2005 09:45 18,5 C 18,2 C 88 % 1009 hPa 0,0 l/m 0,0 m/s (0 Bft) W-SW 250 0,00 min 13,5 klux 16,5 C 18,5 C
11.09.2005 09:50 18,5 C 18,3 C 87 % 1009 hPa 0,0 l/m 0,0 m/s (0 Bft) W-SW 250 0,00 min 13,7 klux 16,3 C 18,5 C
11.09.2005 09:55 18,6 C 18,3 C 87 % 1009 hPa 0,0 l/m 0,0 m/s (0 Bft) W-SW 250 0,00 min 15,8 klux 16,4 C 18,6 C
11.09.2005 10:00 18,6 C 18,4 C 87 % 1010 hPa 0,0 l/m 0,0 m/s (0 Bft) W-SW 250 0,00 min 17,4 klux 16,4 C 18,6 C
11.09.2005 10:05 18,7 C 18,5 C 87 % 1010 hPa 0,0 l/m 0,0 m/s (0 Bft) W-SW 250 0,00 min 18,0 klux 16,5 C 18,7 C
11.09.2005 10:10 18,9 C 18,6 C 86 % 1010 hPa 0,0 l/m 0,0 m/s (0 Bft) W-SW 250 0,00 min 19,9 klux 16,5 C 18,9 C
11.09.2005 10:15 18,9 C 18,8 C 85 % 1010 hPa 0,0 l/m 0,0 m/s (0 Bft) W-SW 250 0,00 min 15,0 klux 16,3 C 18,9 C
11.09.2005 10:20 18,9 C 18,9 C 85 % 1010 hPa 0,0 l/m 0,0 m/s (0 Bft) W-SW 250 0,00 min 10,2 klux 16,3 C 18,9 C
11.09.2005 10:25 18,8 C 18,9 C 85 % 1010 hPa 0,0 l/m 0,0 m/s (0 Bft) W-SW 250 0,00 min 8,05 klux 16,2 C 18,8 C
11.09.2005 10:30 18,8 C 18,9 C 85 % 1010 hPa 0,0 l/m 0,0 m/s (0 Bft) W-SW 250 0,00 min 8,22 klux 16,2 C 18,8 C
11.09.2005 10:35 18,8 C 18,9 C 85 % 1010 hPa 0,0 l/m 0,0 m/s (0 Bft) W-SW 250 0,00 min 9,8 klux 16,2 C 18,8 C
11.09.2005 10:40 18,8 C 19,0 C 85 % 1010 hPa 0,0 l/m 0,0 m/s (0 Bft) W-SW 250 0,00 min 8,62 klux 16,2 C 18,8 C
11.09.2005 10:45 18,8 C 19,0 C 86 % 1010 hPa 0,0 l/m 0,0 m/s (0 Bft) W-SW 250 0,00 min 7,86 klux 16,4 C 18,8 C
11.09.2005 10:50 18,9 C 18,9 C 86 % 1010 hPa 0,0 l/m 0,0 m/s (0 Bft) W-SW 250 0,00 min 7,51 klux 16,5 C 18,9 C
11.09.2005 10:55 18,7 C 18,9 C 86 % 1010 hPa 0,0 l/m 0,0 m/s (0 Bft) W-SW 250 0,00 min 7,18 klux 16,3 C 18,7 C
11.09.2005 11:00 18,7 C 18,9 C 86 % 1010 hPa 0,0 l/m 0,0 m/s (0 Bft) W-SW 250 0,00 min 6,97 klux 16,3 C 18,7 C
11.09.2005 11:05 18,8 C 18,9 C 86 % 1010 hPa 0,0 l/m 0,0 m/s (0 Bft) W-SW 250 0,00 min 5,24 klux 16,4 C 18,8 C
11.09.2005 11:10 18,8 C 18,9 C 86 % 1010 hPa 0,0 l/m 0,0 m/s (0 Bft) W-SW 250 0,00 min 3,44 klux 16,4 C 18,8 C
11.09.2005 11:15 18,5 C 18,8 C 87 % 1010 hPa 0,0 l/m 1,1 m/s (1 Bft) S67.5 170 0,00 min 3,19 klux 16,3 C 18,5 C
11.09.2005 11:20 18,4 C 18,8 C 87 % 1010 hPa 0,0 l/m 0,6 m/s (0 Bft) O22.5 85 0,00 min 3,98 klux 16,2 C 18,4 C
11.09.2005 11:25 18,4 C 18,7 C 87 % 1010 hPa 0,0 l/m 2,1 m/s (1 Bft) O22.5 90 0,00 min 6,00 klux 16,2 C 17,8 C
11.09.2005 11:30 18,3 C 18,7 C 87 % 1010 hPa 0,0 l/m 1,9 m/s (1 Bft) O22.5 95 0,00 min 6,10 klux 16,1 C 18,1 C
11.09.2005 11:35 18,5 C 18,7 C 88 % 1010 hPa 0,0 l/m 0,0 m/s (0 Bft) O 100 0,00 min 9,4 klux 16,5 C 18,5 C
11.09.2005 11:40 18,6 C 18,7 C 88 % 1010 hPa 0,0 l/m 0,0 m/s (0 Bft) O 100 0,00 min 10,3 klux 16,6 C 18,6 C
11.09.2005 11:45 18,7 C 18,8 C 88 % 1010 hPa 0,0 l/m 0,0 m/s (0 Bft) O 100 0,00 min 9,4 klux 16,7 C 18,7 C
11.09.2005 11:50 18,7 C 18,8 C 87 % 1010 hPa 0,0 l/m 0,0 m/s (0 Bft) O 100 0,00 min 10,2 klux 16,5 C 18,7 C
11.09.2005 11:55 18,8 C 18,9 C 86 % 1010 hPa 0,0 l/m 0,0 m/s (0 Bft) O 100 0,00 min 10,0 klux 16,4 C 18,8 C
11.09.2005 12:00 18,8 C 18,9 C 86 % 1010 hPa 0,0 l/m 0,0 m/s (0 Bft) O 100 0,00 min 15,6 klux 16,4 C 18,8 C
11.09.2005 12:05 19,1 C 19,0 C 85 % 1010 hPa 0,0 l/m 0,0 m/s (0 Bft) O 100 0,00 min 12,6 klux 16,5 C 19,1 C
11.09.2005 12:10 19,2 C 19,0 C 84 % 1010 hPa 0,0 l/m 0,0 m/s (0 Bft) O 100 0,00 min 12,5 klux 16,4 C 19,2 C
11.09.2005 12:15 19,0 C 19,1 C 83 % 1010 hPa 0,0 l/m 0,0 m/s (0 Bft) O 100 0,00 min 14,4 klux 16,0 C 19,0 C
11.09.2005 12:20 19,5 C 19,3 C 83 % 1010 hPa 0,0 l/m 0,0 m/s (0 Bft) SW 235 0,00 min 17,1 klux 16,5 C 19,5 C
11.09.2005 12:25 19,5 C 19,4 C 83 % 1010 hPa 0,0 l/m 0,0 m/s (0 Bft) SW 225 0,00 min 16,3 klux 16,5 C 19,5 C
11.09.2005 12:30 19,5 C 19,4 C 83 % 1010 hPa 0,0 l/m 0,0 m/s (0 Bft) SW 230 0,00 min 19,1 klux 16,5 C 19,5 C
11.09.2005 12:35 19,4 C 19,5 C 82 % 1010 hPa 0,0 l/m 0,0 m/s (0 Bft) S-SW22.5 210 0,00 min 20,0 klux 16,2 C 19,4 C
11.09.2005 12:40 19,3 C 19,7 C 83 % 1010 hPa 0,0 l/m 0,1 m/s (0 Bft) SW22.5 230 0,00 min 20,2 klux 16,3 C 19,3 C
11.09.2005 12:45 19,6 C 19,7 C 83 % 1010 hPa 0,0 l/m 0,1 m/s (0 Bft) W-SW22.5 240 0,00 min 19,6 klux 16,6 C 19,6 C
11.09.2005 12:50 19,4 C 19,8 C 83 % 1010 hPa 0,0 l/m 0,3 m/s (0 Bft) SW22.5 230 0,00 min 17,9 klux 16,4 C 19,4 C
11.09.2005 12:55 19,6 C 19,9 C 84 % 1010 hPa 0,0 l/m 0,2 m/s (0 Bft) SW22.5 230 0,00 min 15,7 klux 16,8 C 19,6 C
11.09.2005 13:00 19,5 C 19,8 C 83 % 1010 hPa 0,0 l/m 0,0 m/s (0 Bft) SW 225 0,00 min 12,8 klux 16,5 C 19,5 C
11.09.2005 13:05 19,5 C 19,8 C 84 % 1010 hPa 0,0 l/m 1,9 m/s (1 Bft) SW22.5 225 0,00 min 11,0 klux 16,7 C 19,4 C
11.09.2005 13:10 19,5 C 19,7 C 84 % 1010 hPa 0,0 l/m 2,6 m/s (1 Bft) SW22.5 230 0,00 min 11,7 klux 16,7 C 18,3 C
11.09.2005 13:15 19,4 C 19,6 C 84 % 1010 hPa 0,0 l/m 0,3 m/s (0 Bft) SW22.5 225 0,00 min 10,8 klux 16,6 C 19,4 C
11.09.2005 13:20 19,4 C 19,6 C 84 % 1010 hPa 0,0 l/m 0,0 m/s (0 Bft) SW22.5 215 0,00 min 10,3 klux 16,6 C 19,4 C
11.09.2005 13:25 19,3 C 19,6 C 85 % 1010 hPa 0,0 l/m 0,0 m/s (0 Bft) SW22.5 225 0,00 min 8,29 klux 16,7 C 19,3 C
11.09.2005 13:30 19,3 C 19,6 C 85 % 1010 hPa 0,0 l/m 0,2 m/s (0 Bft) SW 215 0,00 min 8,41 klux 16,7 C 19,3 C
11.09.2005 13:35 19,3 C 19,5 C 85 % 1010 hPa 0,0 l/m 0,0 m/s (0 Bft) SW 215 0,00 min 11,7 klux 16,7 C 19,3 C
11.09.2005 13:40 19,2 C 19,6 C 85 % 1010 hPa 0,0 l/m 1,3 m/s (1 Bft) W-SW22.5 240 0,00 min 14,1 klux 16,6 C 19,2 C
11.09.2005 13:45 19,3 C 19,6 C 85 % 1010 hPa 0,0 l/m 1,4 m/s (1 Bft) W-SW22.5 245 0,00 min 15,3 klux 16,7 C 19,3 C
11.09.2005 13:50 19,5 C 19,6 C 85 % 1010 hPa 0,0 l/m 1,6 m/s (1 Bft) W-SW 245 0,00 min 17,1 klux 16,9 C 19,5 C
11.09.2005 13:55 19,4 C 19,7 C 85 % 1010 hPa 0,0 l/m 1,4 m/s (1 Bft) SW22.5 230 0,00 min 19,2 klux 16,8 C 19,4 C
11.09.2005 14:00 19,7 C 19,8 C 85 % 1010 hPa 0,0 l/m 1,4 m/s (1 Bft) SW22.5 230 0,00 min 21,9 klux 17,1 C 19,7 C
11.09.2005 14:05 20,2 C 20,0 C 84 % 1009 hPa 0,0 l/m 0,4 m/s (0 Bft) W22.5 260 0,00 min 22,5 klux 17,4 C 20,2 C
11.09.2005 14:10 20,0 C 20,0 C 83 % 1010 hPa 0,0 l/m 0,1 m/s (0 Bft) SW 220 0,00 min 20,9 klux 17,0 C 20,0 C
11.09.2005 14:15 19,8 C 20,1 C 84 % 1010 hPa 0,0 l/m 1,0 m/s (0 Bft) SW22.5 225 0,00 min 21,6 klux 17,0 C 19,8 C
11.09.2005 14:20 20,4 C 20,3 C 82 % 1010 hPa 0,0 l/m 1,4 m/s (1 Bft) W-SW22.5 250 0,00 min 24,4 klux 17,2 C 20,4 C
11.09.2005 14:25 20,4 C 20,3 C 82 % 1010 hPa 0,0 l/m 0,3 m/s (0 Bft) W22.5 265 0,00 min 23,4 klux 17,2 C 20,4 C
11.09.2005 14:30 20,2 C 20,5 C 79 % 1010 hPa 0,0 l/m 2,2 m/s (1 Bft) W-SW22.5 250 0,00 min 24,2 klux 16,4 C 19,6 C
11.09.2005 14:35 20,1 C 20,6 C 79 % 1010 hPa 0,0 l/m 2,9 m/s (1 Bft) W22.5 270 0,00 min 23,4 klux 16,3 C 18,7 C
11.09.2005 14:40 20,1 C 20,6 C 79 % 1010 hPa 0,0 l/m 2,4 m/s (1 Bft) W-SW22.5 245 0,00 min 20,2 klux 16,3 C 19,3 C
11.09.2005 14:45 20,2 C 20,6 C 79 % 1010 hPa 0,0 l/m 1,9 m/s (1 Bft) W-SW22.5 255 0,00 min 19,5 klux 16,4 C 20,0 C
11.09.2005 14:50 20,1 C 20,6 C 79 % 1010 hPa 0,0 l/m 2,0 m/s (1 Bft) W-SW22.5 245 0,00 min 16,6 klux 16,3 C 19,8 C
11.09.2005 14:55 20,1 C 20,6 C 80 % 1010 hPa 0,0 l/m 1,4 m/s (1 Bft) W 265 0,00 min 20,1 klux 16,5 C 20,1 C
11.09.2005 15:00 20,2 C 20,7 C 79 % 1010 hPa 0,4 l/m 1,3 m/s (1 Bft) W22.5 265 0,00 min 22,9 klux 16,4 C 20,2 C
11.09.2005 15:05 20,2 C 20,8 C 80 % 1009 hPa 0,0 l/m 0,6 m/s (0 Bft) W22.5 260 0,00 min 24,0 klux 16,6 C 20,2 C
11.09.2005 15:10 20,3 C 20,9 C 79 % 1009 hPa 0,0 l/m 2,4 m/s (1 Bft) W22.5 265 0,00 min 23,6 klux 16,5 C 19,5 C
11.09.2005 15:15 20,4 C 20,9 C 79 % 1009 hPa 0,0 l/m 2,3 m/s (1 Bft) W-SW22.5 245 0,00 min 25,2 klux 16,6 C 19,6 C
11.09.2005 15:20 20,5 C 21,0 C 79 % 1009 hPa 0,0 l/m 0,3 m/s (0 Bft) W22.5 265 0,00 min 24,9 klux 16,7 C 20,5 C
11.09.2005 15:25 20,4 C 21,2 C 79 % 1009 hPa 0,0 l/m 5,3 m/s (1 Bft) SW22.5 235 0,00 min 22,7 klux 16,6 C 16,9 C
11.09.2005 15:30 20,2 C 21,2 C 79 % 1009 hPa 0,0 l/m 1,4 m/s (1 Bft) W 260 0,00 min 24,6 klux 16,4 C 20,2 C
11.09.2005 15:35 20,3 C 21,2 C 79 % 1009 hPa 0,0 l/m 1,9 m/s (1 Bft) W-SW22.5 245 0,00 min 22,6 klux 16,5 C 20,2 C
11.09.2005 15:40 20,5 C 21,2 C 79 % 1009 hPa 0,0 l/m 1,8 m/s (1 Bft) W-SW 245 0,00 min 17,0 klux 16,7 C 20,5 C
11.09.2005 15:45 20,5 C 21,2 C 79 % 1009 hPa 0,0 l/m 1,0 m/s (0 Bft) W-SW 245 0,00 min 16,6 klux 16,7 C 20,5 C
11.09.2005 15:50 20,6 C 21,2 C 79 % 1009 hPa 0,0 l/m 0,0 m/s (0 Bft) W-SW 250 0,00 min 13,3 klux 16,8 C 20,6 C
11.09.2005 15:55 20,6 C 21,2 C 80 % 1009 hPa 0,0 l/m 0,0 m/s (0 Bft) W-SW 250 0,00 min 12,3 klux 17,0 C 20,6 C
11.09.2005 16:00 20,5 C 21,2 C 78 % 1009 hPa 0,0 l/m 0,2 m/s (0 Bft) O-SO67.5 120 0,00 min 9,1 klux 16,5 C 20,5 C
11.09.2005 16:05 20,4 C 21,1 C 78 % 1009 hPa 0,0 l/m 0,0 m/s (0 Bft) O 80 0,00 min 11,4 klux 16,4 C 20,4 C
11.09.2005 16:10 20,4 C 21,1 C 79 % 1009 hPa 0,0 l/m 0,0 m/s (0 Bft) O 90 0,00 min 11,2 klux 16,6 C 20,4 C
11.09.2005 16:15 20,3 C 21,0 C 79 % 1009 hPa 0,0 l/m 1,3 m/s (1 Bft) S 185 0,00 min 9,8 klux 16,5 C 20,3 C
11.09.2005 16:20 20,1 C 20,7 C 79 % 1009 hPa 0,0 l/m 2,0 m/s (1 Bft) W-SW22.5 255 0,00 min 10,4 klux 16,3 C 19,7 C
11.09.2005 16:25 20,3 C 20,7 C 81 % 1009 hPa 0,0 l/m 0,8 m/s (0 Bft) W-SW 255 0,00 min 10,5 klux 16,9 C 20,3 C
11.09.2005 16:30 20,0 C 20,6 C 80 % 1009 hPa 0,0 l/m 1,6 m/s (1 Bft) W22.5 265 0,00 min 10,0 klux 16,4 C 20,0 C
11.09.2005 16:35 20,0 C 20,6 C 81 % 1009 hPa 0,0 l/m 1,1 m/s (0 Bft) W-SW 255 0,00 min 9,5 klux 16,6 C 20,0 C
11.09.2005 16:40 20,0 C 20,5 C 82 % 1009 hPa 0,0 l/m 1,1 m/s (1 Bft) W-SW 240 0,00 min 9,2 klux 16,8 C 20,0 C
11.09.2005 16:45 19,9 C 20,5 C 83 % 1009 hPa 0,0 l/m 0,2 m/s (0 Bft) W-SW 240 0,00 min 7,88 klux 16,9 C 19,9 C
11.09.2005 16:50 19,9 C 20,4 C 84 % 1009 hPa 0,0 l/m 0,3 m/s (0 Bft) W-SW 245 0,00 min 6,49 klux 17,1 C 19,9 C
11.09.2005 16:55 19,9 C 20,3 C 84 % 1009 hPa 0,0 l/m 0,0 m/s (0 Bft) W-SW 245 0,00 min 3,45 klux 17,1 C 19,9 C
11.09.2005 17:00 19,5 C 20,2 C 84 % 1009 hPa 0,0 l/m 0,2 m/s (0 Bft) O-SO22.5 115 0,00 min 3,21 klux 16,7 C 19,5 C
11.09.2005 17:05 19,4 C 20,2 C 83 % 1009 hPa 0,0 l/m 0,0 m/s (0 Bft) O 90 0,00 min 3,00 klux 16,4 C 19,4 C
11.09.2005 17:10 19,4 C 20,0 C 83 % 1009 hPa 0,0 l/m 0,0 m/s (0 Bft) O 90 0,00 min 2,82 klux 16,4 C 19,4 C
11.09.2005 17:15 19,3 C 20,0 C 84 % 1009 hPa 0,0 l/m 0,0 m/s (0 Bft) O 90 0,00 min 2,98 klux 16,5 C 19,3 C
11.09.2005 17:20 19,2 C 19,9 C 86 % 1009 hPa 0,0 l/m 0,1 m/s (0 Bft) O-SO 115 0,00 min 2,61 klux 16,8 C 19,2 C
11.09.2005 17:25 19,2 C 19,8 C 86 % 1009 hPa 0,0 l/m 1,3 m/s (1 Bft) O-SO22.5 115 0,00 min 2,54 klux 16,8 C 19,2 C
11.09.2005 17:30 19,1 C 19,8 C 86 % 1009 hPa 0,4 l/m 0,4 m/s (0 Bft) SO 130 0,00 min 2,46 klux 16,7 C 19,1 C
11.09.2005 17:35 19,0 C 19,7 C 86 % 1009 hPa 0,0 l/m 1,0 m/s (0 Bft) O-SO 115 0,00 min 2,61 klux 16,6 C 19,0 C
11.09.2005 17:40 18,9 C 19,6 C 88 % 1009 hPa 0,0 l/m 1,4 m/s (1 Bft) O22.5 95 0,00 min 3,21 klux 16,9 C 18,9 C
11.09.2005 17:45 18,7 C 19,5 C 88 % 1009 hPa 0,0 l/m 1,6 m/s (1 Bft) O22.5 90 0,00 min 5,18 klux 16,7 C 18,7 C
11.09.2005 17:50 18,8 C 19,5 C 88 % 1009 hPa 0,0 l/m 1,3 m/s (1 Bft) O 80 0,00 min 5,42 klux 16,8 C 18,8 C
11.09.2005 17:55 18,6 C 19,4 C 88 % 1009 hPa 0,0 l/m 1,4 m/s (1 Bft) O45 90 0,00 min 4,20 klux 16,6 C 18,6 C
11.09.2005 18:00 18,7 C 19,3 C 88 % 1009 hPa 0,0 l/m 0,0 m/s (0 Bft) O-SO22.5 105 0,00 min 4,30 klux 16,7 C 18,7 C
11.09.2005 18:05 18,6 C 19,3 C 88 % 1009 hPa 0,0 l/m 0,1 m/s (0 Bft) O 100 0,00 min 4,89 klux 16,6 C 18,6 C
11.09.2005 18:10 18,6 C 19,2 C 88 % 1009 hPa 0,0 l/m 0,0 m/s (0 Bft) SO22.5 130 0,00 min 4,87 klux 16,6 C 18,6 C
11.09.2005 18:15 18,6 C 19,2 C 88 % 1009 hPa 0,0 l/m 0,2 m/s (0 Bft) SO 135 0,00 min 3,42 klux 16,6 C 18,6 C
11.09.2005 18:20 18,5 C 19,2 C 88 % 1009 hPa 0,0 l/m 0,1 m/s (0 Bft) SO 135 0,00 min 2,59 klux 16,5 C 18,5 C
11.09.2005 18:25 18,5 C 19,1 C 89 % 1009 hPa 0,4 l/m 0,0 m/s (0 Bft) SO 135 0,00 min 2,36 klux 16,7 C 18,5 C
11.09.2005 18:30 18,6 C 19,1 C 89 % 1009 hPa 0,0 l/m 0,0 m/s (0 Bft) SO 135 0,00 min 2,59 klux 16,7 C 18,6 C
11.09.2005 18:35 18,5 C 19,0 C 89 % 1009 hPa 0,0 l/m 0,0 m/s (0 Bft) SO 135 0,00 min 1,37 klux 16,7 C 18,5 C
11.09.2005 18:40 18,5 C 19,0 C 89 % 1009 hPa 0,4 l/m 0,1 m/s (0 Bft) SO22.5 130 0,00 min 972 lux 16,7 C 18,5 C
11.09.2005 18:45 18,5 C 19,0 C 90 % 1009 hPa 0,0 l/m 1,0 m/s (0 Bft) O-SO 105 0,00 min 1,32 klux 16,8 C 18,5 C
11.09.2005 18:50 18,5 C 18,9 C 90 % 1009 hPa 0,0 l/m 1,1 m/s (1 Bft) O-NO 75 0,00 min 786 lux 16,8 C 18,5 C
11.09.2005 18:55 18,3 C 18,9 C 90 % 1009 hPa 0,0 l/m 1,8 m/s (1 Bft) O22.5 95 0,00 min 983 lux 16,6 C 18,2 C
11.09.2005 19:00 18,2 C 18,8 C 91 % 1009 hPa 0,0 l/m 2,5 m/s (1 Bft) O22.5 85 0,00 min 330 lux 16,7 C 17,1 C
11.09.2005 19:05 18,1 C 18,8 C 91 % 1009 hPa 0,0 l/m 2,6 m/s (1 Bft) O45 90 0,00 min 605 lux 16,6 C 16,9 C
11.09.2005 19:10 17,9 C 18,7 C 92 % 1009 hPa 0,0 l/m 2,3 m/s (1 Bft) O67.5 80 0,00 min 613 lux 16,6 C 17,1 C
11.09.2005 19:15 17,9 C 18,6 C 91 % 1009 hPa 0,0 l/m 3,3 m/s (1 Bft) O22.5 80 0,00 min 567 lux 16,4 C 15,6 C
11.09.2005 19:20 17,7 C 18,4 C 91 % 1010 hPa 0,0 l/m 4,9 m/s (1 Bft) O22.5 90 0,00 min 554 lux 16,2 C 13,7 C
11.09.2005 19:25 17,6 C 18,4 C 91 % 1010 hPa 0,0 l/m 2,8 m/s (1 Bft) O45 80 0,00 min 338 lux 16,1 C 16,0 C
11.09.2005 19:30 17,5 C 18,3 C 91 % 1010 hPa 0,0 l/m 2,8 m/s (1 Bft) O-NO22.5 75 0,00 min 477 lux 16,0 C 15,8 C
11.09.2005 19:35 17,5 C 18,2 C 91 % 1009 hPa 0,4 l/m 2,9 m/s (1 Bft) O22.5 85 0,00 min 457 lux 16,0 C 15,6 C
11.09.2005 19:40 17,4 C 18,1 C 91 % 1009 hPa 0,0 l/m 2,3 m/s (1 Bft) O-NO45 70 0,00 min 343 lux 15,9 C 16,6 C
11.09.2005 19:45 17,4 C 18,1 C 91 % 1010 hPa 0,0 l/m 2,1 m/s (1 Bft) O22.5 80 0,00 min 236 lux 15,9 C 16,8 C
11.09.2005 19:50 17,2 C 18,0 C 91 % 1010 hPa 0,0 l/m 3,2 m/s (1 Bft) O45 80 0,00 min 133 lux 15,7 C 14,9 C
11.09.2005 19:55 17,2 C 17,9 C 91 % 1010 hPa 0,0 l/m 2,9 m/s (1 Bft) O22.5 80 0,00 min 64 lux 15,7 C 15,4 C
11.09.2005 20:00 17,1 C 17,9 C 91 % 1010 hPa 0,0 l/m 2,3 m/s (1 Bft) O-NO22.5 70 0,00 min 24 lux 15,6 C 16,3 C
11.09.2005 20:05 17,2 C 17,8 C 91 % 1010 hPa 0,0 l/m 2,1 m/s (1 Bft) O45 85 0,00 min 17 lux 15,7 C 16,6 C
11.09.2005 20:10 17,2 C 17,7 C 91 % 1010 hPa 0,0 l/m 1,6 m/s (1 Bft) O22.5 80 0,00 min 12 lux 15,7 C 17,2 C
11.09.2005 20:15 17,2 C 17,7 C 91 % 1010 hPa 0,0 l/m 1,1 m/s (1 Bft) O-NO 70 0,00 min 5 lux 15,7 C 17,2 C
11.09.2005 20:20 17,2 C 17,7 C 91 % 1010 hPa 0,0 l/m 1,2 m/s (1 Bft) O 85 0,00 min 1 lux 15,7 C 17,2 C
11.09.2005 20:25 17,2 C 17,7 C 91 % 1010 hPa 0,0 l/m 0,0 m/s (0 Bft) O 90 0,00 min 0 lux 15,7 C 17,2 C
11.09.2005 20:30 17,1 C 17,7 C 91 % 1010 hPa 0,4 l/m 2,3 m/s (1 Bft) O22.5 85 0,00 min 0 lux 15,6 C 16,3 C
11.09.2005 20:35 17,1 C 17,6 C 91 % 1010 hPa 0,0 l/m 2,3 m/s (1 Bft) O45 85 0,00 min 0 lux 15,6 C 16,2 C
11.09.2005 20:40 17,1 C 17,6 C 91 % 1010 hPa 0,0 l/m 1,9 m/s (1 Bft) O-NO22.5 65 0,00 min 0 lux 15,6 C 16,9 C
11.09.2005 20:45 17,0 C 17,5 C 91 % 1010 hPa 0,0 l/m 1,6 m/s (1 Bft) NO45 45 0,00 min 0 lux 15,5 C 17,0 C
11.09.2005 20:50 17,0 C 17,5 C 92 % 1010 hPa 0,0 l/m 0,0 m/s (0 Bft) NO 35 0,00 min 0 lux 15,7 C 17,0 C
11.09.2005 20:55 17,0 C 17,5 C 92 % 1010 hPa 0,0 l/m 1,2 m/s (1 Bft) O-NO22.5 75 0,00 min 0 lux 15,7 C 17,0 C
11.09.2005 21:00 17,0 C 17,5 C 92 % 1010 hPa 0,0 l/m 1,1 m/s (0 Bft) O 80 0,00 min 0 lux 15,7 C 17,0 C
11.09.2005 21:05 16,9 C 17,4 C 92 % 1010 hPa 0,0 l/m 2,1 m/s (1 Bft) O-NO22.5 75 0,00 min 0 lux 15,6 C 16,4 C
11.09.2005 21:10 16,9 C 17,4 C 92 % 1010 hPa 0,0 l/m 1,5 m/s (1 Bft) O-NO22.5 65 0,00 min 0 lux 15,6 C 16,9 C
11.09.2005 21:15 16,8 C 17,4 C 92 % 1010 hPa 0,0 l/m 1,8 m/s (1 Bft) O-NO 75 0,00 min 0 lux 15,5 C 16,8 C
11.09.2005 21:20 16,9 C 17,3 C 92 % 1010 hPa 0,0 l/m 1,5 m/s (1 Bft) O-NO22.5 75 0,00 min 0 lux 15,6 C 16,9 C
11.09.2005 21:25 16,8 C 17,3 C 92 % 1010 hPa 0,0 l/m 2,3 m/s (1 Bft) O22.5 90 0,00 min 0 lux 15,5 C 15,8 C
11.09.2005 21:30 16,8 C 17,3 C 92 % 1010 hPa 0,0 l/m 2,1 m/s (1 Bft) O45 80 0,00 min 0 lux 15,5 C 16,3 C
11.09.2005 21:35 16,8 C 17,3 C 92 % 1010 hPa 0,0 l/m 1,6 m/s (1 Bft) O22.5 80 0,00 min 0 lux 15,5 C 16,8 C
11.09.2005 21:40 16,8 C 17,2 C 92 % 1010 hPa 0,0 l/m 0,9 m/s (0 Bft) O 100 0,00 min 0 lux 15,5 C 16,8 C
11.09.2005 21:45 16,8 C 17,2 C 92 % 1010 hPa 0,4 l/m 0,0 m/s (0 Bft) O 100 0,00 min 0 lux 15,5 C 16,8 C
11.09.2005 21:50 16,8 C 17,2 C 92 % 1010 hPa 0,0 l/m 0,0 m/s (0 Bft) O 100 0,00 min 0 lux 15,5 C 16,8 C
11.09.2005 21:55 16,8 C 17,2 C 92 % 1010 hPa 0,0 l/m 0,0 m/s (0 Bft) O 100 0,00 min 0 lux 15,5 C 16,8 C
11.09.2005 22:00 16,8 C 17,2 C 93 % 1010 hPa 0,4 l/m 0,0 m/s (0 Bft) O 100 0,00 min 0 lux 15,7 C 16,8 C
11.09.2005 22:05 16,8 C 17,2 C 93 % 1010 hPa 0,0 l/m 0,0 m/s (0 Bft) O 100 0,00 min 0 lux 15,7 C 16,8 C
11.09.2005 22:10 16,6 C 17,2 C 92 % 1010 hPa 0,4 l/m 0,0 m/s (0 Bft) O 100 0,00 min 0 lux 15,3 C 16,6 C
11.09.2005 22:15 16,7 C 17,2 C 93 % 1010 hPa 0,0 l/m 0,0 m/s (0 Bft) O 100 0,00 min 0 lux 15,6 C 16,7 C
11.09.2005 22:20 16,7 C 17,2 C 93 % 1010 hPa 0,4 l/m 0,0 m/s (0 Bft) O 100 0,00 min 0 lux 15,6 C 16,7 C
11.09.2005 22:25 16,6 C 17,2 C 93 % 1010 hPa 0,0 l/m 0,0 m/s (0 Bft) O 100 0,00 min 0 lux 15,5 C 16,6 C
11.09.2005 22:30 16,6 C 17,1 C 93 % 1010 hPa 0,4 l/m 0,0 m/s (0 Bft) O 100 0,00 min 0 lux 15,5 C 16,6 C
11.09.2005 22:35 16,6 C 17,0 C 93 % 1010 hPa 0,4 l/m 0,0 m/s (0 Bft) O 100 0,00 min 0 lux 15,5 C 16,6 C
11.09.2005 22:40 16,6 C 17,0 C 93 % 1010 hPa 0,0 l/m 0,0 m/s (0 Bft) O 100 0,00 min 0 lux 15,5 C 16,6 C
11.09.2005 22:45 16,4 C 17,0 C 93 % 1010 hPa 0,0 l/m 0,0 m/s (0 Bft) O 100 0,00 min 0 lux 15,3 C 16,4 C
11.09.2005 22:50 16,6 C 17,0 C 93 % 1010 hPa 0,0 l/m 0,0 m/s (0 Bft) O 100 0,00 min 0 lux 15,5 C 16,6 C
11.09.2005 22:55 16,5 C 17,0 C 93 % 1010 hPa 0,0 l/m 0,0 m/s (0 Bft) O 100 0,00 min 0 lux 15,4 C 16,5 C
11.09.2005 23:00 16,4 C 16,9 C 92 % 1010 hPa 0,0 l/m 0,0 m/s (0 Bft) O 100 0,00 min 0 lux 15,1 C 16,4 C
11.09.2005 23:05 16,4 C 17,0 C 92 % 1010 hPa 0,0 l/m 0,0 m/s (0 Bft) O 100 0,00 min 0 lux 15,1 C 16,4 C
11.09.2005 23:10 16,4 C 17,0 C 92 % 1010 hPa 0,0 l/m 0,0 m/s (0 Bft) O 100 0,00 min 0 lux 15,1 C 16,4 C
11.09.2005 23:15 16,5 C 17,0 C 92 % 1010 hPa 0,0 l/m 0,0 m/s (0 Bft) O 100 0,00 min 0 lux 15,2 C 16,5 C
11.09.2005 23:20 16,4 C 17,0 C 92 % 1010 hPa 0,0 l/m 0,0 m/s (0 Bft) O 100 0,00 min 0 lux 15,1 C 16,4 C
11.09.2005 23:25 16,4 C 17,0 C 92 % 1010 hPa 0,0 l/m 0,0 m/s (0 Bft) O 100 0,00 min 0 lux 15,1 C 16,4 C
11.09.2005 23:30 16,4 C 16,9 C 92 % 1010 hPa 0,0 l/m 0,0 m/s (0 Bft) O 100 0,00 min 0 lux 15,1 C 16,4 C
11.09.2005 23:35 16,4 C 16,8 C 92 % 1010 hPa 0,4 l/m 0,0 m/s (0 Bft) O 100 0,00 min 0 lux 15,1 C 16,4 C
11.09.2005 23:40 16,4 C 16,8 C 92 % 1010 hPa 0,0 l/m 0,0 m/s (0 Bft) O 100 0,00 min 0 lux 15,1 C 16,4 C
11.09.2005 23:45 16,3 C 16,8 C 92 % 1010 hPa 0,0 l/m 0,0 m/s (0 Bft) O 100 0,00 min 0 lux 15,0 C 16,3 C
11.09.2005 23:50 16,4 C 16,7 C 92 % 1010 hPa 0,0 l/m 0,0 m/s (0 Bft) O 100 0,00 min 0 lux 15,1 C 16,4 C
11.09.2005 23:55 16,4 C 16,7 C 92 % 1010 hPa 0,0 l/m 0,0 m/s (0 Bft) O 100 0,00 min 0 lux 15,1 C 16,4 C
_ Min-Zeit 04:40 06:20 16:00 04:05 - 00:00 - - - - 23:45 19:20
Minimum _ 16,2 C 16,4 C 78 % 1009 hPa - 0,0 m/s (0 Bft) - - - - 15,0 C 13,7 C
_ Max-Zeit 15:50 15:25 00:00 00:00 01:05 15:25 - - 00:00 15:15 14:05 15:50
Maximum _ 20,6 C 21,2 C 95 % 1010 hPa 0,4 l/m 5,3 m/s
SW (3 Bft)
- - 0,00 min 25,2 klux 17,4 C 20,6 C
Durchschnitt _ 17,7 C 18,1 C 90 % 1010 hPa #8,6 l/m 1,0 m/s (1 Bft) W-SW - #0 min. 5,23 klux 16,0 C 17,5 C